This is the latest recevied weather packets stored in our database for station/object N1ORT. If no packets are shown the sender has not sent any weather packets the latest 10 day(s).
| Time | Temp. | Humidity | Pressure | Rain* | Wind** | Luminosity | Snow |
|---|---|---|---|---|---|---|---|
| 1777734948 | 10° C | 87% | 1010 hPa | 0 mm | - | 259 W/m² | - |
| 1777734646 | 10° C | 87% | 1010 hPa | 0 mm | - | 758 W/m² | - |
| 1777734343 | 10° C | 89% | 1010 hPa | 0 mm | - | 630 W/m² | - |
| 1777734039 | 10° C | 90% | 1010.3 hPa | 0 mm | - | 364 W/m² | - |
| 1777733735 | 8.89° C | 92% | 1010.2 hPa | 0 mm | - | 727 W/m² | - |
| 1777733432 | 8.89° C | 93% | 1010.3 hPa | 0 mm | - | 677 W/m² | - |
| 1777733128 | 8.33° C | 94% | 1010.1 hPa | 0 mm | - | 458 W/m² | - |
| 1777732826 | 8.33° C | 94% | 1010.4 hPa | 0 mm | - | 279 W/m² | - |
| 1777732521 | 7.78° C | 93% | 1010.6 hPa | 0 mm | - | 216 W/m² | - |
| 1777732220 | 7.78° C | 93% | 1010.8 hPa | 0 mm | - | 316 W/m² | - |
| 1777731916 | 7.78° C | 94% | 1010.9 hPa | 0 mm | - | 286 W/m² | - |
| 1777731613 | 7.78° C | 95% | 1010.6 hPa | 0 mm | - | 176 W/m² | - |
| 1777731311 | 7.78° C | 95% | 1010.8 hPa | 0 mm | - | 157 W/m² | - |
| 1777731008 | 7.22° C | 96% | 1010.8 hPa | 0 mm | - | 146 W/m² | - |
| 1777730707 | 7.22° C | 97% | 1010.5 hPa | 0 mm | - | 143 W/m² | - |
| 1777730397 | 7.22° C | 97% | 1010.5 hPa | 0 mm | - | 173 W/m² | - |
| 1777730093 | 7.22° C | 97% | 1010.6 hPa | 0 mm | - | 153 W/m² | - |
| 1777729790 | 7.22° C | 97% | 1010.7 hPa | 0 mm | - | 128 W/m² | - |
| 1777729487 | 7.22° C | 97% | 1010.6 hPa | 0 mm | - | 117 W/m² | - |
| 1777729184 | 7.22° C | 98% | 1010.5 hPa | 0 mm | - | 131 W/m² | - |
| 1777728879 | 7.22° C | 98% | 1010.4 hPa | 0 mm | - | 238 W/m² | - |
| 1777728572 | 7.22° C | 98% | 1010.6 hPa | 0.51 mm | - | 216 W/m² | - |
| 1777728268 | 6.67° C | 98% | 1010.5 hPa | 0.51 mm | - | 199 W/m² | - |
| 1777727966 | 6.67° C | 98% | 1010.3 hPa | 2.29 mm | - | 212 W/m² | - |
| 1777727662 | 6.11° C | 98% | 1010.5 hPa | 2.29 mm | - | 144 W/m² | - |
* Rain latest hour (hover to see other rain measurements)
** Current wind speed in m/s (hover to see current wind gust speed)